Wind_Speed
6 5 4 4 4 4 3 3 3 3 3 3 3 3 3 2 2 3 2 3 3 2 1 1 2 2 2 2 2 3 3 4 4 3 4 4 4 3 3 3 4 4 5
6 6 5 5 4 4 4 3 2 3 3 3 3 3 3 2 2 2 2 2 2 1 1 1 1 2 2 3 3 4 4 4 5 5 5 6 6 5 5 5 5 6 6
6 6 6 5 5 4 4 3 3 3 3 3 3 3 2 2 2 2 1 1 1 1 1 1 2 2 2 3 3 4 5 6 6 7 7 7 7 7 7 7 7 7 7
7 6 6 6 5 5 5 4 4 3 2 2 2 2 2 1 1 1 1 1 1 1 1 2 2 2 2 3 4 5 5 6 6 7 7 7 7 7 8 8 8 8 9
8 7 6 6 6 5 5 5 4 3 2 2 1 1 1 1 1 1 0 0 1 2 2 2 2 3 3 4 5 5 6 7 7 8 8 8 8 8 8 8 9 9 10
8 7 7 6 7 6 7 6 4 4 3 2 2 2 1 1 0 0 1 1 2 2 3 3 3 4 4 4 5 5 6 7 8 8 9 9 9 9 10 10 11 11 12
8 7 7 7 7 7 7 7 6 5 4 4 3 3 3 3 2 2 2 2 3 3 4 4 4 5 5 6 6 7 7 8 9 10 10 10 11 12 12 12 12 13 13
8 8 8 8 8 8 8 7 7 6 5 5 5 5 4 4 4 4 4 4 4 5 5 5 5 6 7 8 8 8 9 10 10 11 11 11 12 12 13 13 14 14 15
9 9 9 8 8 8 8 8 8 8 7 7 6 6 6 6 6 6 6 6 6 6 6 7 7 8 8 9 9 10 10 11 11 12 13 13 14 14 14 15 15 16 16
10 10 10 10 9 9 9 9 9 9 9 8 8 8 8 8 8 8 8 8 8 8 9 9 10 10 10 11 11 12 12 12 13 14 14 15 15 15 16 16 17 17 18
10 11 10 10 10 10 10 10 10 10 10 9 9 9 10 10 10 10 10 10 11 11 11 11 12 13 13 13 14 14 14 15 15 16 16 16 17 17 17 18 18 19 20
9 10 11 11 10 10 10 11 11 11 11 11 11 11 12 12 13 13 13 13 14 14 14 15 15 15 16 16 17 17 17 17 18 19 19 19 20 20 20 20 21 22 23
9 10 11 11 11 11 11 12 12 12 12 13 13 13 14 14 14 15 15 16 16 16 17 17 17 17 18 19 20 20 20 21 21 21 22 22 22 22 23 23 24 24 25
9 9 11 12 12 12 12 13 13 14 14 14 15 16 16 16 17 17 17 18 18 19 19 20 20 20 21 22 22 23 23 23 23 24 24 25 25 25 25 26 26 27 28
10 11 12 13 13 12 13 14 14 15 16 16 17 17 18 19 20 20 20 20 21 22 22 23 23 23 24 24 25 25 26 26 26 27 27 27 27 28 28 28 29 30 31
10 11 12 13 13 13 13 14 14 15 17 17 18 19 19 20 21 22 22 23 24 24 25 25 26 26 26 26 27 27 28 28 28 29 29 29 29 30 31 31 32 33 33
10 11 13 13 14 15 15 16 16 17 17 18 19 20 20 21 21 22 22 24 24 26 26 26 27 27 27 28 29 29 29 30 30 31 31 32 32 32 33 34 34 35 35
11 12 13 14 14 15 16 16 17 18 18 19 20 20 21 22 22 22 24 24 25 25 26 26 27 28 29 30 31 31 32 32 32 32 33 34 34 35 36 37 37 37 38
12 12 13 14 15 16 17 17 17 18 19 20 20 21 21 22 23 23 25 25 25 26 27 28 28 29 31 31 32 33 34 34 35 35 35 36 36 37 37 38 39 40 40
12 13 15 15 16 17 18 18 18 19 20 20 21 22 22 23 24 24 25 26 27 28 28 29 30 30 31 31 32 33 33 35 36 36 36 37 38 38 38 39 40 40 41
14 15 16 17 18 18 18 19 19 19 20 21 22 22 23 24 24 25 26 27 27 28 28 29 30 31 31 32 32 33 34 35 36 36 36 37 37 38 39 39 40 41 41
15 16 17 18 18 18 18 19 20 21 21 22 23 24 25 25 26 27 28 28 28 28 28 29 30 31 32 32 33 34 35 35 35 36 37 38 38 38 39 40 40 41 42
16 17 17 18 19 19 19 20 21 22 23 23 24 25 26 27 27 28 28 28 29 29 30 31 31 32 32 33 34 35 35 35 36 37 38 39 39 40 40 41 42 43 43
17 18 18 19 20 21 21 22 23 23 24 25 25 26 26 27 28 28 29 30 30 30 30 31 32 33 33 34 34 35 35 36 36 37 37 38 39 39 40 40 41 42 43
18 19 19 20 21 22 23 24 24 24 25 26 27 27 27 28 29 29 30 30 30 31 31 32 34 34 34 35 35 36 36 37 37 37 37 38 39 40 40 41 42 42 43
20 20 21 22 22 23 23 25 26 27 27 28 28 28 29 30 30 30 31 31 31 31 32 32 33 34 34 34 34 35 36 37 37 37 37 38 39 40 41 42 42 43 43
Wind_Direction
199 193 182 170 162 157 149 137 116 103 103 101 96 92 97 92 97 112 126 137 137 138 161 195 220 235 237 247 234 239 248 249 254 267 267 263 266 263 264 270 273 275 277
198 197 189 179 174 167 165 152 139 119 110 103 97 92 98 94 100 109 127 140 147 160 198 213 222 240 259 260 261 259 257 260 264 268 272 270 273 270 269 272 275 278 278
189 188 190 190 184 175 170 153 145 141 126 111 103 97 92 83 92 107 125 154 171 195 228 247 251 256 264 267 271 270 265 262 264 268 270 274 273 273 272 271 272 273 274
194 193 197 197 192 185 179 170 160 153 151 142 127 114 100 86 103 114 120 155 204 229 246 256 263 259 262 267 272 274 273 271 269 270 271 274 277 276 273 276 273 272 273
199 199 200 204 202 199 195 187 182 180 181 175 159 146 133 114 114 115 125 212 247 257 264 268 269 273 279 283 280 277 273 273 275 275 276 278 277 276 276 277 275 274 274
204 206 207 207 209 210 206 202 202 198 207 211 207 205 211 217 239 240 269 276 273 272 275 272 272 276 282 288 284 276 275 276 277 278 277 277 278 278 278 277 277 276 276
212 215 210 207 212 215 213 210 213 216 220 223 225 226 231 233 245 257 270 282 285 285 283 276 274 275 279 284 284 279 279 279 279 280 280 278 278 279 280 279 280 280 279
214 216 214 215 218 217 215 218 223 225 230 234 236 238 239 242 254 261 268 274 280 282 282 280 277 279 281 282 282 281 282 281 281 282 283 282 281 280 281 282 283 282 281
218 217 219 218 221 223 221 225 228 233 237 240 244 244 247 252 260 265 269 270 273 277 278 280 280 282 282 282 283 284 285 283 283 284 283 283 282 282 283 284 283 283 283
226 227 227 225 228 230 230 232 235 238 241 245 248 249 253 257 261 267 270 270 272 275 278 280 282 284 284 284 285 286 287 284 283 284 284 284 284 284 284 284 284 283 282
230 230 230 231 233 234 234 235 239 243 246 250 253 255 257 260 261 264 268 271 271 272 274 277 280 282 283 285 286 286 287 286 285 285 286 284 285 284 285 285 284 283 283
234 232 232 234 236 239 240 242 244 246 249 253 257 260 262 264 265 266 268 271 272 274 273 274 277 280 282 284 283 284 285 285 286 286 286 285 283 283 285 285 285 285 284
237 235 238 240 241 243 244 246 248 250 253 255 259 262 263 267 269 269 270 273 274 275 276 275 276 279 282 283 283 283 284 284 285 285 284 284 284 285 285 285 285 284 284
239 240 240 242 246 247 248 251 252 253 256 259 261 264 266 268 270 270 270 272 274 276 277 278 278 279 280 280 281 282 283 284 284 285 285 284 284 284 284 284 284 284 285
246 248 248 250 251 251 254 259 259 260 261 262 263 266 269 269 270 269 270 271 274 276 276 277 278 279 281 281 281 281 281 281 281 283 283 283 283 284 285 285 285 285 285
252 251 253 255 256 258 260 261 263 265 266 269 270 272 274 274 274 273 271 272 274 277 278 278 279 280 281 282 284 283 282 283 282 282 282 283 283 283 284 285 286 285 285
261 260 260 259 259 259 260 262 265 268 270 271 274 275 277 278 277 275 275 275 276 279 278 278 278 278 281 282 284 285 285 285 284 283 283 282 282 283 284 285 286 285 284
270 267 264 261 262 263 264 263 265 269 273 275 276 278 279 279 279 278 278 277 277 280 281 281 279 279 282 283 284 285 284 284 284 284 285 284 284 284 284 285 284 284 283
273 270 267 264 265 267 267 266 268 271 274 276 276 277 279 281 281 281 280 280 280 281 282 282 281 281 282 283 283 284 284 285 285 285 285 285 285 284 285 285 284 284 284
273 273 269 267 270 270 270 269 270 272 275 277 278 279 281 282 283 283 283 284 282 283 283 282 282 283 283 284 285 286 286 286 285 285 286 286 286 285 286 287 286 286 285
276 277 275 272 273 273 272 272 273 274 276 277 280 282 282 283 283 284 285 286 286 285 285 285 284 284 284 286 287 288 289 288 287 287 288 288 287 287 286 287 286 286 286
278 279 276 277 277 276 274 275 276 276 278 280 282 283 284 283 283 284 286 286 286 285 284 285 285 285 286 286 287 289 289 288 289 291 291 291 290 289 289 289 288 288 287
279 281 280 279 279 279 278 276 277 277 278 282 283 284 284 284 284 284 285 285 285 284 282 283 285 285 286 287 288 289 289 289 291 290 290 289 289 290 290 290 290 290 290
281 282 283 283 282 281 280 280 279 279 280 282 284 285 286 287 287 286 286 286 286 286 285 285 286 287 288 289 291 290 290 290 290 290 290 290 290 290 290 291 291 291 290
284 285 285 284 284 283 280 280 280 280 283 283 284 286 288 288 286 287 288 288 287 287 288 288 287 288 289 288 290 291 291 291 291 291 291 292 291 291 291 292 292 292 291
286 286 285 285 286 286 284 282 281 281 283 285 287 288 289 289 289 289 290 289 288 288 288 289 289 289 291 291 293 294 294 293 293 293 293 294 293 293 293 293 293 292 292
Height
5904 5904 5905 5906 5906 5907 5907 5907 5908 5908 5908 5908 5909 5909 5909 5909 5909 5909 5909 5909 5909 5910 5910 5910 5910 5910 5910 5910 5910 5911 5911 5911 5911 5911 5911 5911 5911 5911 5911 5911 5911 5911 5911
5903 5904 5905 5905 5906 5907 5907 5907 5908 5908 5908 5909 5909 5909 5909 5909 5909 5909 5909 5909 5909 5910 5910 5910 5910 5910 5910 5910 5910 5910 5910 5910 5910 5910 5910 5910 5910 5910 5910 5910 5910 5910 5910
5903 5903 5904 5905 5906 5906 5907 5907 5908 5908 5909 5909 5909 5909 5909 5909 5909 5909 5909 5909 5909 5909 5909 5909 5909 5909 5909 5909 5909 5909 5909 5909 5909 5909 5909 5909 5909 5908 5908 5908 5908 5908 5908
5902 5903 5904 5905 5905 5906 5907 5907 5908 5908 5909 5909 5909 5909 5909 5909 5909 5909 5909 5909 5909 5909 5909 5909 5909 5909 5909 5908 5908 5908 5908 5908 5908 5907 5907 5907 5907 5907 5907 5906 5906 5906 5906
5901 5902 5903 5904 5905 5905 5906 5907 5908 5908 5909 5909 5909 5909 5909 5909 5909 5909 5909 5909 5909 5909 5909 5909 5908 5908 5908 5908 5907 5907 5907 5907 5906 5906 5906 5906 5905 5905 5905 5904 5904 5904 5904
5900 5901 5902 5903 5904 5905 5906 5907 5907 5908 5908 5909 5909 5909 5909 5909 5909 5909 5909 5909 5909 5908 5908 5908 5908 5907 5907 5907 5906 5906 5905 5905 5905 5904 5904 5904 5903 5903 5903 5902 5902 5902 5901
5899 5900 5901 5902 5903 5904 5905 5906 5907 5907 5908 5908 5909 5909 5909 5909 5909 5909 5909 5908 5908 5908 5907 5907 5907 5906 5906 5905 5905 5905 5904 5904 5903 5903 5902 5902 5901 5901 5900 5900 5899 5899 5898
5898 5899 5900 5901 5902 5903 5904 5905 5906 5907 5907 5908 5908 5908 5908 5909 5909 5908 5908 5908 5908 5907 5907 5906 5906 5905 5905 5904 5904 5903 5903 5902 5901 5900 5900 5899 5899 5898 5898 5897 5896 5896 5895
5897 5898 5899 5900 5901 5902 5903 5904 5905 5906 5906 5906 5907 5907 5908 5908 5908 5908 5907 5907 5906 5906 5906 5905 5905 5904 5903 5903 5902 5901 5901 5900 5899 5898 5897 5896 5896 5895 5894 5894 5893 5892 5892
5895 5896 5897 5898 5900 5901 5902 5902 5903 5904 5905 5905 5905 5906 5906 5906 5906 5906 5906 5905 5905 5905 5904 5904 5903 5902 5901 5900 5900 5899 5898 5897 5896 5895 5894 5894 5893 5892 5891 5890 5889 5889 5888
5893 5894 5895 5897 5898 5899 5900 5901 5901 5902 5902 5903 5903 5904 5904 5904 5904 5904 5903 5903 5903 5902 5902 5901 5900 5900 5899 5898 5897 5896 5895 5894 5893 5892 5891 5890 5889 5888 5887 5886 5885 5884 5883
5892 5893 5894 5895 5896 5897 5898 5898 5899 5900 5900 5901 5901 5901 5901 5901 5901 5901 5901 5900 5900 5899 5899 5898 5897 5896 5895 5895 5894 5893 5892 5891 5889 5888 5887 5886 5885 5884 5883 5882 5880 5879 5878
5890 5891 5892 5893 5894 5894 5895 5896 5897 5897 5898 5898 5898 5898 5898 5898 5898 5898 5897 5897 5896 5896 5895 5894 5893 5892 5891 5890 5889 5888 5887 5886 5885 5884 5882 5881 5880 5879 5877 5876 5875 5873 5872
5888 5889 5889 5890 5891 5892 5892 5893 5893 5894 5894 5895 5895 5895 5895 5894 5894 5894 5893 5893 5892 5891 5890 5890 5888 5887 5886 5885 5884 5883 5882 5881 5879 5878 5877 5875 5874 5873 5871 5870 5868 5867 5865
5886 5886 5887 5888 5888 5889 5889 5890 5890 5891 5891 5891 5891 5891 5890 5890 5890 5889 5889 5888 5888 5887 5886 5884 5883 5882 5881 5880 5878 5877 5876 5875 5873 5872 5870 5869 5867 5866 5864 5863 5861 5860 5858
5883 5884 5884 5885 5885 5886 5886 5887 5887 5887 5887 5887 5887 5886 5886 5885 5885 5884 5883 5882 5882 5881 5880 5879 5877 5876 5875 5873 5872 5870 5869 5867 5866 5865 5863 5862 5860 5858 5857 5855 5854 5852 5850
5880 5881 5881 5882 5882 5882 5883 5883 5883 5883 5883 5883 5882 5881 5881 5880 5879 5878 5877 5877 5876 5875 5874 5872 5871 5869 5868 5867 5865 5863 5862 5860 5858 5857 5855 5853 5852 5850 5848 5846 5844 5842 5840
5878 5878 5878 5878 5879 5879 5879 5879 5879 5879 5879 5878 5877 5877 5876 5874 5873 5872 5871 5870 5869 5868 5867 5866 5864 5862 5861 5859 5857 5855 5854 5852 5850 5848 5846 5844 5843 5841 5839 5837 5835 5832 5830
5875 5875 5875 5875 5875 5875 5875 5875 5874 5874 5874 5873 5872 5871 5870 5869 5868 5866 5865 5864 5863 5861 5860 5858 5857 5855 5853 5851 5849 5847 5845 5843 5842 5839 5837 5835 5833 5831 5829 5827 5824 5822 5819
5872 5872 5871 5871 5871 5871 5870 5870 5869 5869 5869 5868 5867 5866 5865 5864 5862 5860 5859 5857 5856 5855 5853 5851 5849 5848 5846 5844 5841 5839 5837 5835 5832 5830 5828 5825 5823 5821 5819 5816 5813 5811 5808
5869 5868 5867 5867 5867 5866 5866 5865 5864 5864 5863 5863 5862 5860 5859 5857 5856 5854 5853 5851 5849 5847 5846 5844 5842 5840 5838 5836 5833 5831 5828 5826 5823 5821 5818 5816 5813 5811 5808 5805 5802 5800 5797
5865 5864 5864 5863 5862 5861 5861 5860 5859 5859 5858 5857 5856 5854 5853 5851 5849 5848 5846 5844 5842 5840 5838 5836 5834 5832 5830 5827 5825 5822 5819 5817 5815 5812 5809 5806 5803 5800 5797 5794 5791 5788 5785
5861 5860 5859 5858 5858 5857 5856 5855 5854 5853 5852 5851 5849 5848 5846 5844 5842 5840 5838 5836 5834 5832 5831 5828 5826 5824 5821 5819 5816 5813 5810 5807 5805 5802 5798 5795 5792 5789 5786 5783 5780 5777 5774
5856 5856 5855 5854 5853 5851 5850 5849 5848 5847 5845 5844 5842 5841 5839 5837 5835 5833 5831 5829 5827 5824 5822 5820 5818 5815 5813 5810 5807 5804 5801 5797 5794 5791 5788 5785 5782 5778 5775 5772 5769 5766 5762
5852 5851 5850 5849 5847 5846 5845 5843 5842 5840 5839 5837 5835 5833 5831 5830 5827 5825 5823 5821 5818 5816 5813 5811 5809 5806 5803 5800 5797 5794 5791 5787 5784 5781 5777 5774 5771 5767 5764 5760 5757 5753 5750
5847 5846 5845 5843 5842 5840 5839 5837 5836 5834 5832 5830 5828 5826 5824 5822 5820 5817 5815 5812 5810 5807 5805 5802 5799 5796 5793 5790 5787 5784 5781 5777 5774 5770 5767 5763 5760 5756 5752 5749 5745 5741 5737